Regional Weather Roundup
Issued by NWS

Home | Current Version | Previous Version | Text Only | Print | Product List | Glossary On
Versions: 1 2 3 4 5 6 7 8 9 10 11 12 13 14 15 16 17 18 19 20 21 22 23 24 25 26 27
000
ASUS43 KDMX 242207
RWRIA

WEATHER ROUNDUP FOR IOWA
NATIONAL WEATHER SERVICE DES MOINES IA
500 PM CDT THU APR 24 2014

NOTE: "FAIR" INDICATES FEW OR NO CLOUDS BELOW 12,000 FEET WITH NO
SIGNIFICANT WEATHER AND/OR OBSTRUCTIONS TO VISIBILITY.

* - THESE STATIONS ARE NOT NWS STATIONS...THUS NOT UNDER NWS
QUALITY CONTROL.  THEY ALSO DO NOT REPORT WEATHER SUCH
AS PRECIPITATION OR FOG.

IAZ001>003-012>014-020>022-031>034-043>046-242300-
   NORTHWEST IOWA

CITY           SKY/WX    TMP DP  RH WIND       PRES   REMARKS
CARROLL *      SUNNY     57  45  62 N21       29.72S
CHEROKEE *     PTSUNNY   63  43  48 NW14G20   29.71F
DENISON *      SUNNY     57  45  62 N13G21    29.71F
LE MARS *        N/A     63  43  48 N13       29.71F
ORANGE CITY *  SUNNY     63  37  39 N10G20    29.71S
SHELDON *      SUNNY     61  41  48 N14       29.70F
SIOUX CITY     MOSUNNY   66  38  35 N15       29.71F
SPENCER        PTSUNNY   59  43  55 N20G26    29.72S
STORM LAKE *   SUNNY     57  45  62 N17       29.72F
$$

IAZ055>058-069>071-079>083-090>094-242300-
   SOUTHWEST IOWA

CITY           SKY/WX    TMP DP  RH WIND       PRES   REMARKS
ATLANTIC *     SUNNY     57  48  72 N16G23    29.71S
AUDUBON *      SUNNY     57  45  62 N16G24    29.72S
CLARINDA *     SUNNY     57  50  77 N16G25    29.73R
COUNCIL BLFS * SUNNY     61  48  63 N10G17    29.72S
CRESTON *      MOSUNNY   52  46  82 N22       29.69S
HARLAN  *      SUNNY     57  46  67 N15G26    29.75F
LAMONI         LGT RAIN  52  48  86 N14G23    29.67R
RED OAK *      SUNNY     59  48  67 N13G23    29.72S
SHENANDOAH *   SUNNY     59  46  63 N22       29.74R
$$

IAZ047>049-059>061-072>074-084-242300-
   CENTRAL IOWA

CITY           SKY/WX    TMP DP  RH WIND       PRES   REMARKS
AMES           CLOUDY    51  46  83 NW14      29.69R
ANKENY *       DRIZZLE   52  48  87 NW16      29.68F
CHARITON *     RAIN      52  50  93 N18       29.66S
DES MOINES     LGT RAIN  53  47  79 N13G22    29.68F
GRINNELL*      RAIN      50  50 100 NW21G26   29.64F
KNOXVILLE *    RAIN      52  48  87 NW14G21   29.65R
MARSHALLTOWN   CLOUDY    51  48  89 NW14      29.67R
NEWTON *       CLOUDY    52  50  93 NW20G26   29.65F
PELLA *        HVY RAIN  52  50  93 N14       29.67R
PERRY *          N/A     54  46  76 NW16G22   29.70S
$$

IAZ004>006-015-016-023>025-035-036-242300-
   NORTH CENTRAL IOWA

CITY           SKY/WX    TMP DP  RH WIND       PRES   REMARKS
ALGONA *       MOSUNNY   54  45  71 NW20G25   29.71R
CLARION *      CLOUDY    52  46  82 N14G23    29.70R
ESTHERVILLE    CLOUDY    54  45  71 NW17      29.71S
FORT DODGE *   CLOUDY    55  45  67 N10G18    29.71S
MASON CITY     CLOUDY    50  44  80 NW16      29.69R
FOREST CITY *  CLOUDY    50  43  76 NW14      29.69R
IOWA FALLS *   CLOUDY    50  46  87 NW13      29.69S
$$

IAZ007>011-017>019-026>030-037>042-050>054-066-242300-
   NORTHEAST IOWA

CITY           SKY/WX    TMP DP  RH WIND       PRES   REMARKS
CEDAR RAPIDS   RAIN      52  50  93 W6        29.66R FOG
CHARLES CITY * LGT RAIN  50  46  87 W9        29.68R
CLINTON *      CLOUDY    57  46  67 SE10      29.69S
DECORAH *      CLOUDY    50  50 100 SW5       29.65S FOG
DUBUQUE        CLOUDY    52  47  83 SE14      29.64F
MONTICELLO *   CLOUDY    55  52  88 SE6       29.64S
OELWEIN *      LGT RAIN N/A N/A N/A SW7       29.67S
WATERLOO       LGT RAIN  51  50  96 S6        29.66R FOG
$$

IAZ064-065-067-068-078-242300-
   EAST CENTRAL IOWA

CITY           SKY/WX    TMP DP  RH WIND       PRES   REMARKS
DAVENPORT      CLOUDY    59  48  67 S10       29.67R
IOWA CITY      HVY RAIN  54  54 100 SW7       29.68R FOG
MT. PLEASANT * LGT RAIN  54  52  94 CALM      29.64F
MUSCATINE *    LGT RAIN  57  50  77 S7        29.66S
QUAD CITIES    CLOUDY    60  49  66 SW3       29.66R
$$

IAZ062-063-075>077-085>089-095>099-242300-
   SOUTHEAST IOWA

CITY           SKY/WX    TMP DP  RH WIND       PRES   REMARKS
BURLINGTON     CLOUDY    55  53  93 N7        29.61S
FAIRFIELD *    HVY RAIN  54  52  94 NW5       29.65F
FORT MADISON * RAIN      55  54  94 NW6       29.63F
KEOKUK *       LGT RAIN  55  54  94 NW8       29.61R
OSKALOOSA *    RAIN      52  52 100 CALM      29.65F
CENTERVILLE *  RAIN      54  54 100 NW7       29.66R
OTTUMWA        RAIN      52  51  97 CALM      29.65S FOG
WASHINGTON *   RAIN      54  52  94 CALM      29.64F
$$

ABBREVIATIONS USED IN REMARKS
   TC - TEMPERATURES IN CELSIUS
  WCI - WIND CHILL INDEX
   HX - HEAT INDEX
  VSB - VISIBILITY
$$




USA.gov is the U.S. government's official web portal to all federal, state and local government web resources and services.